{"data":{"norad_id":65981,"epoch":"2026-09-20T14:12:11.398176Z","epoch_age_seconds":132502,"freshness":"FRESH","line1":"1 65981U 25230H   26263.59179859  .00000103  00000+0  90855-4 0  9997","line2":"2 65981  81.2983 124.2196 0001852 327.5886  32.5153 13.78088304 46957","mean_motion":13.78088304,"eccentricity":0.0001852,"inclination_deg":81.2983,"raan_deg":124.2196,"arg_perigee_deg":327.5886,"mean_anomaly_deg":32.5153,"bstar":9.0855e-5,"rev_number":4695,"period_min":104.49257829272,"perigee_km":969.3141048813,"apogee_km":972.03610488495,"semimajor_km":7348.8121048831,"source":"CELESTRAK","updated_at":"2026-09-21T09:00:15.688192Z"}}